SCP
0 0 0 0 0 0 0 0 0 0 0 0 0 0 0 0 0 0 0 0 0 0 0 0 0 0 0 0 0 0 0 0 0 0 0 0 0 0 0 0 0 0 0 0 0 0 0 0 0 0 0 0 0 0
0 0 0 0 0 0 0 0 0 0 0 0 0 0 0 0 0 0 0 0 0 0 0 0 0 0 0 0 0 0 0 0 0 0 0 0 0 0 0 0 0 0 0 0 0 0 0 0 0 0 0 0 0 0
0 0 0 0 0 0 0 0 0 0 0 0 0 0 0 0 0 0 0 0 0 0 0 0 0 0 0 0 0 0 0 0 0 0 0 0 0 0 0 0 0 0 0 0 0 0 0 0 0 0 0 0 0 0
0 0 0 0 0 0 0 0 0 0 0 0 0 0 0 0 0 0 0 0 0 0 0 0 0 0 0 0 0 0 0 0 0 0 0 0 0 0 0 0 0 0 0 0 0 0 0 0 0 0 0 0 0 0
0 0 0 0 0 0 0 0 0 0 0 0 0 0 0 0 0 0 0 0 0 0 0 0 0 0 0 0 0 0 0 0 0 0 0 0 0 0 0 0 0 0 0 0 0 0 0 0 0 0 0 0 0 0
0 0 0 0 0 0 0 0 0 0 0 0 0 0 0 0 0 0 0 0 0 0 0 0 0 0 0 0 0 0 0 0 0 0 0 0 0 0 0 0 0 0 0 0 0 0 0 0 0 0 0 0 0 0
0 0 0 0 0 0 -0 0 0 0 0 0 0 0 0 0 0 0 0 0 0 0 0 0 0 0 0 0 0 0 0 0 0 0 0 0 0 0 0 0 0 0 0 0 0 0 0 0 0 0 0 0 0 0
-0 -0 -0 -0 -0 0 0 -0 0 0 0 0 0 0 0 0 0 0 0 0 0 0 0 0 0 0 0 0 0 0 0 0 0 0 0 0 0 0 0 0 0 0 0 0 0 0 0 0 0 0 0 0 0 0
-0 -0 0 -0 -0 0 0 -0 0 0 0 0 0 0 0 0 0 0 0 0 0 0 0 0 0 0 0 0 0 0 0 0 0 0 0 0 0 0 0 0 0 0 0 0 0 0 0 0 0 0 0 0 0 0
0 -0 -0 0 -0 -0 -0 0 -0 0 0 0 0 0 0 0 0 0 0 0 0 0 0 0 0 0 0 0 0 0 0 0 0 0 0 0 0 0 0 0 0 0 0 0 0 0 0 0 0 0 0 0 0 0
-0 0 0 0 -0 -0 -0 -0 0 0 0 0 0 0 0 0 0 0 0 0 0 0 0 0 0 0 0 0 0 0 0 0 0 0 0 0 0 0 0 0 0 0 0 0 0 0 0 0 0 0 0 0 0 0
-0 -0 -0 -0 -0 -0 -0 -0 -0 0 0 0 0 0 0 0 0 0 0 0 0 0 0 0 0 0 0 0 0 0 0 0 0 0 0 0 0 0 0 0 0 0 0 0 0 0 0 0 0 0 0 0 0 0
-0 -0 0 -0 -0 -0 0 -0 0 0 0 0 0 0 0 0 0 0 0 0 0 0 0 0 0 0 0 0 0 0 0 0 0 0 0 0 0 0 0 0 0 0 0 0 0 0 0 0 0 0 0 0 0 0
-0 -0 -0 -0 -0 -0 -0 -0 -0 0 0 0 0 0 0 0 0 0 0 0 0 0 0 0 0 0 0 0 0 0 0 0 0 0 0 0 0 0 0 0 0 0 0 0 0 0 0 0 0 0 0 0 0 0
-0 -0 0 -0 -0 -0 0 0 0 0 0 0 0 0 0 0 0 0 0 0 0 0 0 0 0 0 0 0 0 0 0 0 0 0 0 0 0 0 0 0 0 0 0 0 0 0 0 0 0 0 0 0 0 0
-0 -0 0 -0 -0 -0 -0 -0 0 0 0 0 0 0 0 0 0 0 0 0 0 0 0 0 0 0 0 0 0 0 0 0 0 0 0 0 0 0 0 0 0 0 0 0 0 0 0 0 0 0 0 0 0 0
0 -0 -0 -0 -0 0 0 0 0 0 0 0 0 0 0 0 0 0 0 0 0 0 0 0 0 0 0 0 0 0 0 0 0 0 0 0 0 0 0 0 0 0 0 0 0 0 0 0 0 0 0 0 0 0
-0 0 -0 -0 0 0 0 0 0 0 0 0 0 0 0 0 0 0 0 0 0 0 0 0 0 0 0 0 0 0 0 0 0 0 0 0 0 0 0 0 0 0 0 0 0 0 0 0 0 0 0 0 0 0
0 0 -0 -0 0 0 0 0 0 0 0 -0 0 0 0 0 0 0 0 0 0 0 0 0 0 0 0 0 0 0 0 0 0 0 0 0 0 0 0 0 0 0 0 0 0 0 0 0 0 0 0 0 0 0
0 0 -0 -0 0 0 0 0 0 0 0 0 0 0 0 0 0 0 0 0 0 0 0 0 0 0 0 0 0 0 0 0 0 0 0 0 0 0 0 0 0 0 0 0 0 0 0 0 0 0 0 0 0 0
0 0 0 0 0 0 0 0 0 0 0 0 0 0 0 0 0 0 0 0 0 0 0 0 0 0 0 0 0 0 0 0 0 0 0 0 0 0 0 0 0 0 0 0 0 0 0 0 0 0 0 0 0 0
0 0 0 0 0 0 0 0 0 0 0 0 0 0 0 0 0 0 0 0 0 0 0 0 0 0 0 0 0 0 0 0 0 0 0 0 0 0 0 0 0 0 0 0 0 0 0 0 0 0 0 0 0 0
0 0 0 0 0 0 0 0 0 0 0 0 0 0 0 0 0 0 0 0 0 0 0 0 0 0 0 0 0 0 0 0 0 0 0 0 0 0 0 0 0 0 0 0 0 0 0 0 0 0 0 0 0 0
0 0 0 0 0 0 0 0 0 0 0 0 0 0 0 0 0 0 0 0 0 0 0 0 0 0 0 0 0 0 0 0 0 0 0 0 0 0 0 0 0 0 0 0 0 0 0 0 0 0 0 0 0 0
0 0 0 0 0 0 0 0 0 0 0 0 0 0 0 0 0 0 0 0 0 0 0 0 0 0 0 0 0 0 0 0 0 0 0 0 0 0 0 0 0 0 0 0 0 0 0 0 0 0 0 0 0 0
0 0 0 0 0 0 0 0 0 0 0 0 0 0 0 0 0 0 0 0 0 0 0 0 0 0 0 0 0 0 0 0 0 0 0 0 0 0 0 0 0 0 0 0 0 0 0 0 0 0 0 0 0 0
0 0 0 0 0 0 0 0 0 0 0 0 0 0 0 0 0 0 0 0 0 0 0 0 0 0 0 0 0 0 0 0 0 0 0 0 0 0 0 0 0 0 0 0 0 0 0 0 0 0 0 0 0 0
0 0 0 0 0 0 0 0 0 0 0 0 0 0 0 0 0 0 0 0 0 0 0 0 0 0 0 0 0 0 0 0 0 0 0 0 0 0 0 0 0 0 0 0 0 0 0 0 0 0 0 0 0 0
0 0 0 0 0 0 0 0 0 0 0 0 0 0 0 0 0 0 0 0 0 0 0 0 0 0 0 0 0 0 0 0 0 0 0 0 0 0 0 0 0 0 0 0 0 0 0 0 0 0 0 0 0 0
0 0 0 0 0 0 0 0 0 0 0 0 0 0 0 0 0 0 0 0 0 0 0 0 0 0 0 0 0 0 0 0 0 0 0 0 0 0 0 0 0 0 0 0 0 0 0 0 0 0 0 0 0 0
0 0 0 0 0 0 0 0 0 0 0 0 0 0 0 0 0 0 0 0 0 0 0 0 0 0 0 0 0 0 0 0 0 0 0 0 0 0 0 0 0 0 0 0 0 0 0 0 0 0 0 0 0 0
0 -0 -0 -0 0 0 0 0 0 0 0 0 0 0 0 0 0 0 0 0 0 0 -0 0 0 0 0 0 0 0 0 0 0 0 0 0 0 0 0 0 0 0 0 0 0 0 0 0 0 0 0 0 0 0
0 0 0 -0 -0 -0 0 0 0 0 0 0 0 0 0 0 -0 -0 -0 0 -0 -0 0 -0 -0 -0 0 0 0 0 0 0 0 -0 0 0 0 0 0 0 0 0 0 0 0 0 0 0 0 0 0 0 0 0
Wind_Speed_500mb
30 28 27 31 36 41 43 42 42 50 49 51 55 57 62 57 51 51 49 41 63 27 27 51 53 32 23 22 8 10 10 2 5 5 7 7 6 11 5 4 11 16 13 9 8 6 21 21 9 13 9 27 22 13
27 25 22 23 28 35 42 45 44 42 45 50 53 53 53 52 55 44 40 41 39 31 15 54 59 60 60 58 47 39 10 14 20 7 2 6 4 2 7 6 2 5 11 11 16 12 5 33 7 21 21 19 12 14
27 29 30 29 32 33 35 42 45 48 47 46 45 50 55 53 55 53 54 38 33 33 28 32 56 75 65 57 47 35 22 19 20 14 15 5 7 7 8 9 4 8 9 5 7 9 13 17 16 22 14 10 18 5
38 37 38 39 41 41 41 42 46 50 51 52 50 48 47 50 48 49 51 53 47 3 6 18 43 70 66 70 55 53 37 40 28 26 9 5 5 14 7 6 10 11 22 12 6 4 11 13 23 29 21 8 22 31
43 46 48 49 50 51 52 52 47 51 53 53 54 54 51 48 47 46 52 51 51 40 2 6 11 40 53 76 80 71 54 44 40 11 5 6 9 8 4 4 9 23 12 11 9 19 11 16 34 15 21 22 29 33
37 43 50 54 59 63 64 62 57 54 52 54 54 54 55 52 46 46 41 58 55 51 9 5 8 27 35 58 74 74 69 58 47 24 10 12 14 11 8 8 13 32 22 37 18 30 24 18 30 31 28 30 34 36
51 53 57 62 65 77 71 70 66 62 60 57 56 53 51 54 56 57 11 19 49 58 12 4 5 29 28 48 55 46 56 52 33 28 16 21 16 24 6 13 12 29 37 37 36 26 28 34 21 25 31 32 35 40
63 61 64 70 74 51 52 67 71 70 65 63 59 55 54 48 52 58 64 12 45 49 21 6 3 8 45 25 17 50 29 34 30 21 21 13 18 9 6 46 27 34 35 33 38 41 42 37 38 43 39 40 43 46
61 61 63 70 42 47 74 71 80 77 72 67 58 55 56 57 54 55 70 63 41 29 14 12 11 7 40 24 26 26 29 11 19 8 11 27 8 12 22 41 52 60 64 61 53 51 53 54 46 43 44 45 46 49
33 40 27 31 41 52 63 63 79 75 68 68 59 51 35 64 57 35 48 45 43 30 19 6 22 12 41 21 11 16 17 8 9 9 27 9 13 60 67 75 44 57 66 56 54 50 53 54 51 44 44 45 50 53
33 33 34 46 56 52 36 63 71 68 64 67 43 34 33 44 49 32 14 15 14 11 24 24 18 6 28 9 7 17 7 7 11 9 15 11 8 38 84 74 59 55 54 58 54 49 40 44 36 41 46 48 48 49
41 37 43 45 59 31 34 56 62 70 68 67 41 40 53 28 19 12 11 7 7 16 10 13 27 31 16 16 5 11 9 10 13 22 12 9 12 60 69 79 81 66 63 60 55 51 48 45 44 44 45 45 46 45
47 39 39 49 56 13 40 46 55 72 67 40 39 17 18 15 10 15 13 5 7 5 17 23 6 21 11 14 5 11 12 10 25 9 8 10 31 69 75 78 80 77 71 65 60 55 51 46 44 44 41 40 40 42
51 34 34 43 49 21 48 51 55 55 55 24 13 10 7 7 3 7 12 11 19 27 41 44 13 9 11 7 3 6 5 6 11 13 11 7 57 74 79 80 76 79 73 66 59 52 46 42 40 38 34 35 37 38
49 32 25 52 33 19 58 58 65 45 5 8 8 10 7 4 10 11 18 20 16 35 39 17 9 14 5 6 5 7 4 10 14 11 9 32 44 60 69 75 76 72 66 58 49 43 38 31 29 28 28 30 31 31
34 17 40 49 32 36 72 74 61 20 10 10 16 9 9 8 8 6 7 11 20 33 32 13 7 7 9 7 10 12 11 9 8 8 26 37 41 53 63 63 60 57 54 46 39 33 27 24 21 21 23 25 27 26
24 27 43 23 16 48 73 51 26 12 13 11 4 14 9 13 6 6 7 12 17 24 7 6 14 13 4 9 13 7 12 8 2 8 23 34 48 57 61 57 51 44 41 36 31 26 21 18 17 17 19 20 19 19
27 33 39 11 18 27 61 21 14 13 12 13 6 3 7 7 8 7 10 15 15 11 6 8 7 10 8 11 8 7 6 7 13 21 23 31 43 48 45 47 43 36 31 26 21 16 13 12 12 14 14 13 13 12
21 29 33 9 12 8 11 13 14 9 9 8 12 9 8 9 9 4 4 13 18 7 2 5 8 9 8 1 5 1 26 16 21 38 43 41 41 41 41 41 38 32 25 19 14 11 11 13 13 13 13 13 12 10
16 19 24 12 7 10 12 13 12 14 5 6 9 8 6 7 7 7 6 12 14 6 6 3 3 1 1 2 7 12 18 33 50 51 42 38 38 35 32 30 28 25 21 18 17 16 15 14 14 14 13 12 12 10
11 13 17 6 13 23 16 9 14 12 13 7 9 7 7 7 9 12 13 8 10 8 2 3 7 12 19 19 25 21 34 37 31 19 43 49 42 35 30 27 23 21 18 17 15 16 17 16 14 13 12 12 11 10
14 14 10 18 13 13 18 18 13 10 7 9 6 4 8 4 6 8 7 15 8 4 2 10 15 19 23 28 34 37 28 17 13 25 32 35 36 31 27 23 20 20 19 19 19 17 16 15 15 14 13 13 13 13
8 12 14 19 12 14 7 8 7 8 5 4 3 4 4 2 4 5 7 7 7 10 14 17 18 19 22 26 26 24 21 17 21 26 32 27 28 26 23 23 23 21 21 21 21 21 20 18 16 15 16 15 15 15
16 14 19 16 26 4 5 11 9 8 9 8 5 4 5 5 17 4 6 8 6 9 11 15 16 16 16 17 18 18 16 15 15 18 21 19 20 23 25 24 22 22 23 23 21 20 19 18 16 17 16 17 17 17
9 26 19 15 18 12 13 10 11 8 6 4 4 5 3 9 3 6 3 4 1 6 9 11 11 10 11 13 15 16 17 16 14 15 16 14 16 16 17 19 21 21 21 20 19 19 18 17 17 17 18 18 19 22
18 21 14 4 13 8 4 6 8 5 5 4 3 8 7 3 8 3 3 5 9 12 12 12 11 11 13 15 15 15 14 13 11 12 13 15 15 18 17 16 17 16 18 18 19 19 17 17 18 19 20 21 23 26
12 9 14 18 6 3 8 8 3 5 9 7 6 11 6 7 5 4 1 3 9 13 14 14 13 12 11 10 10 12 13 13 13 12 11 15 15 14 14 17 15 18 15 18 17 18 19 19 20 22 23 24 26 31
10 18 7 20 11 14 7 5 7 5 4 6 5 10 5 3 3 3 3 2 6 10 12 12 12 12 10 9 8 9 11 12 11 9 10 11 12 13 14 15 16 16 15 15 17 19 20 22 24 26 27 29 30 33
11 19 10 10 8 12 8 4 2 4 7 5 2 4 6 6 6 8 9 5 6 9 9 9 10 10 9 8 8 9 10 11 11 10 10 8 10 10 13 14 15 16 17 19 20 21 22 25 28 31 32 32 34 36
12 18 6 4 7 5 4 8 7 11 10 9 10 10 10 8 9 11 10 6 6 9 12 11 10 10 9 10 9 8 8 9 10 10 8 9 9 10 9 12 16 18 20 21 23 25 27 31 32 36 38 38 40 42
11 10 5 7 3 2 7 14 12 12 9 7 12 9 12 14 9 8 7 7 10 10 10 10 9 9 8 7 6 7 7 8 8 10 11 12 13 13 14 16 18 21 24 26 28 30 33 36 37 39 41 43 43 44
11 11 4 5 3 6 9 13 9 6 5 5 5 8 10 10 8 8 9 5 6 6 8 9 8 7 10 13 12 9 8 10 12 14 16 16 18 20 23 24 25 27 29 31 33 34 37 40 43 43 46 46 45 46
5 6 6 5 4 4 12 14 9 9 4 4 4 7 6 7 8 6 9 5 5 12 13 14 16 18 16 15 14 15 15 16 17 17 18 19 22 25 26 27 29 31 33 36 38 40 41 43 46 47 48 51 53 55
Wind_Direction_500mb
266 268 274 267 257 256 252 253 254 247 240 236 234 232 227 232 231 228 229 237 204 209 214 213 210 187 167 187 145 157 103 260 55 138 139 184 136 211 116 184 178 170 158 193 142 157 259 162 145 180 184 148 149 165
259 266 274 284 286 262 253 249 245 248 243 239 231 229 226 222 224 224 227 234 229 227 223 214 221 225 230 222 201 175 191 159 173 107 135 102 119 80 147 213 212 211 178 175 182 205 80 167 154 139 138 150 193 219
270 270 274 274 278 281 275 254 245 239 238 237 229 233 231 231 228 222 231 236 232 234 252 220 219 220 224 231 233 193 217 181 182 166 156 162 172 127 161 238 118 250 160 168 105 220 163 153 140 155 161 163 143 176
269 272 275 275 271 272 270 264 259 240 237 234 231 232 229 226 223 219 228 228 201 189 243 243 235 232 220 216 222 225 225 200 190 180 132 137 158 191 202 174 187 188 150 158 249 167 132 173 177 179 163 229 283 288
270 270 270 269 270 266 261 258 252 247 239 232 228 226 226 224 223 222 227 238 233 217 254 258 260 221 221 224 224 227 225 210 179 147 109 189 152 116 342 54 240 175 167 187 215 174 178 167 165 231 284 275 281 285
273 274 273 270 269 261 257 249 246 245 241 230 228 225 223 224 220 223 230 234 226 225 214 233 253 257 239 221 223 222 224 213 202 192 171 172 178 178 147 204 220 207 206 221 197 208 209 232 273 277 275 274 278 281
287 283 281 283 278 271 250 242 238 236 233 229 226 224 220 218 214 215 198 228 218 216 228 231 245 210 221 211 214 201 206 203 203 191 182 165 177 177 113 234 142 205 212 211 204 215 254 256 245 263 268 268 272 278
280 280 283 279 282 264 241 237 234 230 229 226 223 222 222 219 223 226 219 180 181 181 198 245 242 177 192 177 193 208 207 202 204 180 163 148 138 126 225 243 212 204 200 218 228 231 239 250 254 262 257 264 271 277
271 274 273 301 276 253 259 259 225 225 222 220 220 219 220 216 221 226 223 208 190 182 185 192 164 198 170 178 178 170 184 202 192 178 181 160 157 206 226 222 218 211 212 219 219 230 243 251 249 250 256 264 272 279
274 275 279 312 318 280 281 235 211 214 212 205 207 208 211 213 216 209 178 195 204 206 241 198 205 189 177 171 154 135 179 174 178 201 147 194 202 223 231 231 229 226 225 215 210 219 230 238 243 248 259 268 275 279
343 341 324 315 314 306 262 199 198 198 197 197 199 204 201 196 182 192 177 175 166 179 193 203 201 141 193 167 160 196 167 153 183 181 188 185 223 219 224 229 229 224 215 216 224 231 236 240 242 255 265 271 277 283
335 333 322 317 318 321 199 190 191 193 198 196 194 183 173 178 191 180 159 121 177 184 173 166 180 195 183 178 136 171 178 165 214 153 167 202 235 221 220 226 226 218 212 211 218 223 230 244 254 259 262 270 280 290
338 334 313 316 321 296 192 189 191 197 189 188 198 164 167 192 164 149 150 114 132 157 157 154 127 162 153 207 207 179 184 200 120 179 211 217 208 215 215 217 214 213 211 218 219 223 235 244 251 256 266 276 286 293
340 334 308 323 327 232 185 183 192 207 167 180 164 130 147 135 216 152 145 157 167 171 170 161 137 156 165 169 197 219 197 143 191 179 221 240 208 216 213 214 209 210 212 217 221 226 231 233 243 255 266 279 287 292
337 333 320 336 337 196 175 176 181 187 101 77 94 125 175 117 69 114 144 130 156 182 173 165 158 142 162 160 186 119 221 215 188 195 206 227 222 217 208 202 202 204 206 209 211 212 216 225 241 258 273 283 289 292
344 349 350 349 351 163 175 174 168 168 70 55 52 68 34 52 339 80 131 121 156 162 161 172 157 178 201 180 166 206 177 221 226 213 216 218 200 192 194 193 193 195 193 192 195 200 210 223 237 254 267 276 285 290
348 360 1 14 68 127 158 159 131 74 69 68 12 63 71 75 121 104 141 170 154 163 182 143 181 199 171 185 185 200 189 211 237 241 183 184 186 178 176 176 176 179 177 176 185 192 201 213 231 248 262 274 280 280
345 358 1 30 84 111 133 131 86 72 64 55 90 51 72 81 109 120 171 179 173 194 175 212 147 149 231 195 226 199 115 119 147 152 153 155 160 159 163 164 163 170 169 169 176 185 198 219 235 244 252 258 256 255
331 349 5 22 96 102 67 54 52 88 78 95 94 82 88 89 73 54 236 210 210 186 237 185 209 192 175 223 323 64 153 151 149 139 138 143 148 150 157 157 159 161 161 164 174 192 211 223 230 237 236 230 225 227
330 350 6 34 156 79 81 51 65 85 92 114 96 86 66 57 48 34 57 149 151 123 38 55 37 233 110 231 160 140 146 155 152 133 133 142 145 154 159 157 156 159 167 175 187 198 204 210 215 213 214 216 222 213
347 349 20 95 64 64 83 69 66 76 111 97 98 84 72 68 41 27 16 69 75 38 102 82 119 113 111 117 131 139 136 146 154 153 154 154 157 161 158 154 158 163 166 170 177 190 196 198 196 196 199 202 218 235
3 21 54 62 75 70 71 51 85 92 88 95 63 52 66 60 32 11 5 52 55 25 120 128 125 120 113 111 115 126 129 128 137 144 155 159 155 158 160 161 162 166 171 173 179 182 189 191 188 190 198 213 227 244
25 29 51 35 85 58 45 55 86 44 124 100 93 74 49 42 10 15 78 57 86 58 103 116 122 122 118 120 129 139 142 132 133 136 144 151 152 155 163 171 175 179 184 186 189 189 191 193 199 206 219 228 239 251
44 48 31 37 29 62 51 35 47 49 49 35 38 87 3 331 345 63 58 9 58 95 108 118 125 126 133 144 155 153 149 143 141 142 149 151 161 166 171 177 181 187 190 190 194 197 200 205 215 226 236 245 253 262
58 11 18 5 17 28 33 15 2 44 59 322 58 14 348 331 102 65 38 308 101 134 146 146 142 144 163 170 168 168 167 164 168 168 161 169 175 176 191 199 198 196 202 206 207 206 210 219 229 241 252 260 267 273
63 8 37 331 355 47 341 45 31 11 343 36 19 292 317 19 58 23 245 175 185 188 179 174 169 171 180 185 183 180 180 179 175 184 178 176 187 189 185 204 210 206 212 212 215 216 220 230 242 252 259 266 273 277
56 344 12 25 10 37 65 44 80 69 46 25 342 343 346 66 59 260 338 178 177 180 180 181 183 190 191 184 183 183 185 184 186 189 185 189 192 195 201 201 197 206 211 216 220 228 236 244 251 258 264 269 279 284
65 26 45 350 36 30 108 48 38 35 307 339 325 22 84 162 212 19 34 10 181 180 181 183 186 190 193 191 187 187 189 188 186 186 195 192 192 196 202 207 212 215 224 230 237 243 249 255 261 265 270 276 281 284
38 357 360 17 26 45 54 86 207 21 352 338 106 291 271 273 294 310 329 307 221 203 198 193 196 200 201 197 194 192 192 188 183 186 183 181 196 208 220 225 230 234 241 245 248 252 256 262 267 270 274 281 287 290
9 4 44 35 63 12 348 10 354 336 320 311 300 298 292 295 313 324 322 298 217 202 208 208 206 205 205 200 198 195 192 195 201 203 199 206 206 212 230 237 241 246 252 257 259 261 264 269 277 282 287 290 293 295
353 357 59 51 116 38 337 333 328 322 314 310 301 288 306 315 329 341 317 267 245 236 223 215 213 215 208 197 191 192 199 207 214 224 231 233 237 242 251 258 260 263 268 270 270 271 274 277 279 282 285 288 291 292
15 37 60 45 349 351 347 345 329 317 308 306 298 310 323 311 301 348 354 316 233 212 192 202 195 177 192 202 207 210 221 231 237 240 244 248 253 257 260 263 265 268 271 274 277 280 282 283 284 286 289 290 291 292
18 24 38 12 17 18 357 347 6 348 282 293 312 316 311 299 267 345 357 349 201 189 189 189 198 211 213 217 221 227 236 242 253 263 268 269 270 271 271 272 273 274 277 279 280 282 283 285 287 289 290 292 294 295
Wind_Speed_850mb
30 28 27 31 36 41 43 42 42 50 49 51 55 57 62 57 51 51 49 41 63 27 27 51 53 32 23 22 8 10 10 2 5 5 7 7 6 11 5 4 11 16 13 9 8 6 21 21 9 13 9 27 22 13
27 25 22 23 28 35 42 45 44 42 45 50 53 53 53 52 55 44 40 41 39 31 15 54 59 60 60 58 47 39 10 14 20 7 2 6 4 2 7 6 2 5 11 11 16 12 5 33 7 21 21 19 12 14
27 29 30 29 32 33 35 42 45 48 47 46 45 50 55 53 55 53 54 38 33 33 28 32 56 75 65 57 47 35 22 19 20 14 15 5 7 7 8 9 4 8 9 5 7 9 13 17 16 22 14 10 18 5
38 37 38 39 41 41 41 42 46 50 51 52 50 48 47 50 48 49 51 53 47 3 6 18 43 70 66 70 55 53 37 40 28 26 9 5 5 14 7 6 10 11 22 12 6 4 11 13 23 29 21 8 22 31
43 46 48 49 50 51 52 52 47 51 53 53 54 54 51 48 47 46 52 51 51 40 2 6 11 40 53 76 80 71 54 44 40 11 5 6 9 8 4 4 9 23 12 11 9 19 11 16 34 15 21 22 29 33
37 43 50 54 59 63 64 62 57 54 52 54 54 54 55 52 46 46 41 58 55 51 9 5 8 27 35 58 74 74 69 58 47 24 10 12 14 11 8 8 13 32 22 37 18 30 24 18 30 31 28 30 34 36
51 53 57 62 65 77 71 70 66 62 60 57 56 53 51 54 56 57 11 19 49 58 12 4 5 29 28 48 55 46 56 52 33 28 16 21 16 24 6 13 12 29 37 37 36 26 28 34 21 25 31 32 35 40
63 61 64 70 74 51 52 67 71 70 65 63 59 55 54 48 52 58 64 12 45 49 21 6 3 8 45 25 17 50 29 34 30 21 21 13 18 9 6 46 27 34 35 33 38 41 42 37 38 43 39 40 43 46
61 61 63 70 42 47 74 71 80 77 72 67 58 55 56 57 54 55 70 63 41 29 14 12 11 7 40 24 26 26 29 11 19 8 11 27 8 12 22 41 52 60 64 61 53 51 53 54 46 43 44 45 46 49
33 40 27 31 41 52 63 63 79 75 68 68 59 51 35 64 57 35 48 45 43 30 19 6 22 12 41 21 11 16 17 8 9 9 27 9 13 60 67 75 44 57 66 56 54 50 53 54 51 44 44 45 50 53
33 33 34 46 56 52 36 63 71 68 64 67 43 34 33 44 49 32 14 15 14 11 24 24 18 6 28 9 7 17 7 7 11 9 15 11 8 38 84 74 59 55 54 58 54 49 40 44 36 41 46 48 48 49
41 37 43 45 59 31 34 56 62 70 68 67 41 40 53 28 19 12 11 7 7 16 10 13 27 31 16 16 5 11 9 10 13 22 12 9 12 60 69 79 81 66 63 60 55 51 48 45 44 44 45 45 46 45
47 39 39 49 56 13 40 46 55 72 67 40 39 17 18 15 10 15 13 5 7 5 17 23 6 21 11 14 5 11 12 10 25 9 8 10 31 69 75 78 80 77 71 65 60 55 51 46 44 44 41 40 40 42
51 34 34 43 49 21 48 51 55 55 55 24 13 10 7 7 3 7 12 11 19 27 41 44 13 9 11 7 3 6 5 6 11 13 11 7 57 74 79 80 76 79 73 66 59 52 46 42 40 38 34 35 37 38
49 32 25 52 33 19 58 58 65 45 5 8 8 10 7 4 10 11 18 20 16 35 39 17 9 14 5 6 5 7 4 10 14 11 9 32 44 60 69 75 76 72 66 58 49 43 38 31 29 28 28 30 31 31
34 17 40 49 32 36 72 74 61 20 10 10 16 9 9 8 8 6 7 11 20 33 32 13 7 7 9 7 10 12 11 9 8 8 26 37 41 53 63 63 60 57 54 46 39 33 27 24 21 21 23 25 27 26
24 27 43 23 16 48 73 51 26 12 13 11 4 14 9 13 6 6 7 12 17 24 7 6 14 13 4 9 13 7 12 8 2 8 23 34 48 57 61 57 51 44 41 36 31 26 21 18 17 17 19 20 19 19
27 33 39 11 18 27 61 21 14 13 12 13 6 3 7 7 8 7 10 15 15 11 6 8 7 10 8 11 8 7 6 7 13 21 23 31 43 48 45 47 43 36 31 26 21 16 13 12 12 14 14 13 13 12
21 29 33 9 12 8 11 13 14 9 9 8 12 9 8 9 9 4 4 13 18 7 2 5 8 9 8 1 5 1 26 16 21 38 43 41 41 41 41 41 38 32 25 19 14 11 11 13 13 13 13 13 12 10
16 19 24 12 7 10 12 13 12 14 5 6 9 8 6 7 7 7 6 12 14 6 6 3 3 1 1 2 7 12 18 33 50 51 42 38 38 35 32 30 28 25 21 18 17 16 15 14 14 14 13 12 12 10
11 13 17 6 13 23 16 9 14 12 13 7 9 7 7 7 9 12 13 8 10 8 2 3 7 12 19 19 25 21 34 37 31 19 43 49 42 35 30 27 23 21 18 17 15 16 17 16 14 13 12 12 11 10
14 14 10 18 13 13 18 18 13 10 7 9 6 4 8 4 6 8 7 15 8 4 2 10 15 19 23 28 34 37 28 17 13 25 32 35 36 31 27 23 20 20 19 19 19 17 16 15 15 14 13 13 13 13
8 12 14 19 12 14 7 8 7 8 5 4 3 4 4 2 4 5 7 7 7 10 14 17 18 19 22 26 26 24 21 17 21 26 32 27 28 26 23 23 23 21 21 21 21 21 20 18 16 15 16 15 15 15
16 14 19 16 26 4 5 11 9 8 9 8 5 4 5 5 17 4 6 8 6 9 11 15 16 16 16 17 18 18 16 15 15 18 21 19 20 23 25 24 22 22 23 23 21 20 19 18 16 17 16 17 17 17
9 26 19 15 18 12 13 10 11 8 6 4 4 5 3 9 3 6 3 4 1 6 9 11 11 10 11 13 15 16 17 16 14 15 16 14 16 16 17 19 21 21 21 20 19 19 18 17 17 17 18 18 19 22
18 21 14 4 13 8 4 6 8 5 5 4 3 8 7 3 8 3 3 5 9 12 12 12 11 11 13 15 15 15 14 13 11 12 13 15 15 18 17 16 17 16 18 18 19 19 17 17 18 19 20 21 23 26
12 9 14 18 6 3 8 8 3 5 9 7 6 11 6 7 5 4 1 3 9 13 14 14 13 12 11 10 10 12 13 13 13 12 11 15 15 14 14 17 15 18 15 18 17 18 19 19 20 22 23 24 26 31
10 18 7 20 11 14 7 5 7 5 4 6 5 10 5 3 3 3 3 2 6 10 12 12 12 12 10 9 8 9 11 12 11 9 10 11 12 13 14 15 16 16 15 15 17 19 20 22 24 26 27 29 30 33
11 19 10 10 8 12 8 4 2 4 7 5 2 4 6 6 6 8 9 5 6 9 9 9 10 10 9 8 8 9 10 11 11 10 10 8 10 10 13 14 15 16 17 19 20 21 22 25 28 31 32 32 34 36
12 18 6 4 7 5 4 8 7 11 10 9 10 10 10 8 9 11 10 6 6 9 12 11 10 10 9 10 9 8 8 9 10 10 8 9 9 10 9 12 16 18 20 21 23 25 27 31 32 36 38 38 40 42
11 10 5 7 3 2 7 14 12 12 9 7 12 9 12 14 9 8 7 7 10 10 10 10 9 9 8 7 6 7 7 8 8 10 11 12 13 13 14 16 18 21 24 26 28 30 33 36 37 39 41 43 43 44
11 11 4 5 3 6 9 13 9 6 5 5 5 8 10 10 8 8 9 5 6 6 8 9 8 7 10 13 12 9 8 10 12 14 16 16 18 20 23 24 25 27 29 31 33 34 37 40 43 43 46 46 45 46
5 6 6 5 4 4 12 14 9 9 4 4 4 7 6 7 8 6 9 5 5 12 13 14 16 18 16 15 14 15 15 16 17 17 18 19 22 25 26 27 29 31 33 36 38 40 41 43 46 47 48 51 53 55
Wind_Direction_850mb
266 268 274 267 257 256 252 253 254 247 240 236 234 232 227 232 231 228 229 237 204 209 214 213 210 187 167 187 145 157 103 260 55 138 139 184 136 211 116 184 178 170 158 193 142 157 259 162 145 180 184 148 149 165
259 266 274 284 286 262 253 249 245 248 243 239 231 229 226 222 224 224 227 234 229 227 223 214 221 225 230 222 201 175 191 159 173 107 135 102 119 80 147 213 212 211 178 175 182 205 80 167 154 139 138 150 193 219
270 270 274 274 278 281 275 254 245 239 238 237 229 233 231 231 228 222 231 236 232 234 252 220 219 220 224 231 233 193 217 181 182 166 156 162 172 127 161 238 118 250 160 168 105 220 163 153 140 155 161 163 143 176
269 272 275 275 271 272 270 264 259 240 237 234 231 232 229 226 223 219 228 228 201 189 243 243 235 232 220 216 222 225 225 200 190 180 132 137 158 191 202 174 187 188 150 158 249 167 132 173 177 179 163 229 283 288
270 270 270 269 270 266 261 258 252 247 239 232 228 226 226 224 223 222 227 238 233 217 254 258 260 221 221 224 224 227 225 210 179 147 109 189 152 116 342 54 240 175 167 187 215 174 178 167 165 231 284 275 281 285
273 274 273 270 269 261 257 249 246 245 241 230 228 225 223 224 220 223 230 234 226 225 214 233 253 257 239 221 223 222 224 213 202 192 171 172 178 178 147 204 220 207 206 221 197 208 209 232 273 277 275 274 278 281
287 283 281 283 278 271 250 242 238 236 233 229 226 224 220 218 214 215 198 228 218 216 228 231 245 210 221 211 214 201 206 203 203 191 182 165 177 177 113 234 142 205 212 211 204 215 254 256 245 263 268 268 272 278
280 280 283 279 282 264 241 237 234 230 229 226 223 222 222 219 223 226 219 180 181 181 198 245 242 177 192 177 193 208 207 202 204 180 163 148 138 126 225 243 212 204 200 218 228 231 239 250 254 262 257 264 271 277
271 274 273 301 276 253 259 259 225 225 222 220 220 219 220 216 221 226 223 208 190 182 185 192 164 198 170 178 178 170 184 202 192 178 181 160 157 206 226 222 218 211 212 219 219 230 243 251 249 250 256 264 272 279
274 275 279 312 318 280 281 235 211 214 212 205 207 208 211 213 216 209 178 195 204 206 241 198 205 189 177 171 154 135 179 174 178 201 147 194 202 223 231 231 229 226 225 215 210 219 230 238 243 248 259 268 275 279
343 341 324 315 314 306 262 199 198 198 197 197 199 204 201 196 182 192 177 175 166 179 193 203 201 141 193 167 160 196 167 153 183 181 188 185 223 219 224 229 229 224 215 216 224 231 236 240 242 255 265 271 277 283
335 333 322 317 318 321 199 190 191 193 198 196 194 183 173 178 191 180 159 121 177 184 173 166 180 195 183 178 136 171 178 165 214 153 167 202 235 221 220 226 226 218 212 211 218 223 230 244 254 259 262 270 280 290
338 334 313 316 321 296 192 189 191 197 189 188 198 164 167 192 164 149 150 114 132 157 157 154 127 162 153 207 207 179 184 200 120 179 211 217 208 215 215 217 214 213 211 218 219 223 235 244 251 256 266 276 286 293
340 334 308 323 327 232 185 183 192 207 167 180 164 130 147 135 216 152 145 157 167 171 170 161 137 156 165 169 197 219 197 143 191 179 221 240 208 216 213 214 209 210 212 217 221 226 231 233 243 255 266 279 287 292
337 333 320 336 337 196 175 176 181 187 101 77 94 125 175 117 69 114 144 130 156 182 173 165 158 142 162 160 186 119 221 215 188 195 206 227 222 217 208 202 202 204 206 209 211 212 216 225 241 258 273 283 289 292
344 349 350 349 351 163 175 174 168 168 70 55 52 68 34 52 339 80 131 121 156 162 161 172 157 178 201 180 166 206 177 221 226 213 216 218 200 192 194 193 193 195 193 192 195 200 210 223 237 254 267 276 285 290
348 360 1 14 68 127 158 159 131 74 69 68 12 63 71 75 121 104 141 170 154 163 182 143 181 199 171 185 185 200 189 211 237 241 183 184 186 178 176 176 176 179 177 176 185 192 201 213 231 248 262 274 280 280
345 358 1 30 84 111 133 131 86 72 64 55 90 51 72 81 109 120 171 179 173 194 175 212 147 149 231 195 226 199 115 119 147 152 153 155 160 159 163 164 163 170 169 169 176 185 198 219 235 244 252 258 256 255
331 349 5 22 96 102 67 54 52 88 78 95 94 82 88 89 73 54 236 210 210 186 237 185 209 192 175 223 323 64 153 151 149 139 138 143 148 150 157 157 159 161 161 164 174 192 211 223 230 237 236 230 225 227
330 350 6 34 156 79 81 51 65 85 92 114 96 86 66 57 48 34 57 149 151 123 38 55 37 233 110 231 160 140 146 155 152 133 133 142 145 154 159 157 156 159 167 175 187 198 204 210 215 213 214 216 222 213
347 349 20 95 64 64 83 69 66 76 111 97 98 84 72 68 41 27 16 69 75 38 102 82 119 113 111 117 131 139 136 146 154 153 154 154 157 161 158 154 158 163 166 170 177 190 196 198 196 196 199 202 218 235
3 21 54 62 75 70 71 51 85 92 88 95 63 52 66 60 32 11 5 52 55 25 120 128 125 120 113 111 115 126 129 128 137 144 155 159 155 158 160 161 162 166 171 173 179 182 189 191 188 190 198 213 227 244
25 29 51 35 85 58 45 55 86 44 124 100 93 74 49 42 10 15 78 57 86 58 103 116 122 122 118 120 129 139 142 132 133 136 144 151 152 155 163 171 175 179 184 186 189 189 191 193 199 206 219 228 239 251
44 48 31 37 29 62 51 35 47 49 49 35 38 87 3 331 345 63 58 9 58 95 108 118 125 126 133 144 155 153 149 143 141 142 149 151 161 166 171 177 181 187 190 190 194 197 200 205 215 226 236 245 253 262
58 11 18 5 17 28 33 15 2 44 59 322 58 14 348 331 102 65 38 308 101 134 146 146 142 144 163 170 168 168 167 164 168 168 161 169 175 176 191 199 198 196 202 206 207 206 210 219 229 241 252 260 267 273
63 8 37 331 355 47 341 45 31 11 343 36 19 292 317 19 58 23 245 175 185 188 179 174 169 171 180 185 183 180 180 179 175 184 178 176 187 189 185 204 210 206 212 212 215 216 220 230 242 252 259 266 273 277
56 344 12 25 10 37 65 44 80 69 46 25 342 343 346 66 59 260 338 178 177 180 180 181 183 190 191 184 183 183 185 184 186 189 185 189 192 195 201 201 197 206 211 216 220 228 236 244 251 258 264 269 279 284
65 26 45 350 36 30 108 48 38 35 307 339 325 22 84 162 212 19 34 10 181 180 181 183 186 190 193 191 187 187 189 188 186 186 195 192 192 196 202 207 212 215 224 230 237 243 249 255 261 265 270 276 281 284
38 357 360 17 26 45 54 86 207 21 352 338 106 291 271 273 294 310 329 307 221 203 198 193 196 200 201 197 194 192 192 188 183 186 183 181 196 208 220 225 230 234 241 245 248 252 256 262 267 270 274 281 287 290
9 4 44 35 63 12 348 10 354 336 320 311 300 298 292 295 313 324 322 298 217 202 208 208 206 205 205 200 198 195 192 195 201 203 199 206 206 212 230 237 241 246 252 257 259 261 264 269 277 282 287 290 293 295
353 357 59 51 116 38 337 333 328 322 314 310 301 288 306 315 329 341 317 267 245 236 223 215 213 215 208 197 191 192 199 207 214 224 231 233 237 242 251 258 260 263 268 270 270 271 274 277 279 282 285 288 291 292
15 37 60 45 349 351 347 345 329 317 308 306 298 310 323 311 301 348 354 316 233 212 192 202 195 177 192 202 207 210 221 231 237 240 244 248 253 257 260 263 265 268 271 274 277 280 282 283 284 286 289 290 291 292
18 24 38 12 17 18 357 347 6 348 282 293 312 316 311 299 267 345 357 349 201 189 189 189 198 211 213 217 221 227 236 242 253 263 268 269 270 271 271 272 273 274 277 279 280 282 283 285 287 289 290 292 294 295